Location: Marcé
(47.5801°N, 0.3280°W)
Time: 08:14:17
(UTC+01:00)

Vanguard 1 - Pass Details

Date: 04 December 2021
Orbit: 652 x 3830 km, 34.2° (Epoch: 16 January)

Event Time Altitude Azimuth Distance (km) Brightness Sun altitude
Exits shadow 06:28:49 20° 261° (W) 5,606 13.3 -20.0°
Maximum altitude 06:40:05 34° 216° (SW) 3,939 12.9 -18.1°
Drops below altitude 10° 06:51:20 10° 157° (SSE) 4,416 13.9 -16.3°
Sets 06:54:34 0° 148° (SSE) 5,026 14.5 -15.8°
